Location: La Brionne
(46.1728°N, 1.7849°E)
Time: 20:57:29
(UTC+00:00)

Cosmos 1315 Rocket - Pass Details

Date: 16 June 2021
Orbit: 528 x 568 km, 81.2° (Epoch: 01 August)

Event Time Altitude Azimuth Distance (km) Brightness Sun altitude
Rises 20:18:12 0° 352° (N) 2,782 7.3 -5.1°
Reaches altitude 10° 20:20:26 10° 356° (N) 1,880 6.3 -5.4°
Maximum altitude 20:24:33 61° 77° (ENE) 650 3.0 -5.9°
Drops below altitude 10° 20:28:36 10° 158° (SSE) 1,857 4.9 -6.4°
Enters shadow 20:29:31 - 160° (SSE) 2,226 5.4 -6.5°
